Calgary Springbank,

10:43 PM MST on November 22, 2017 (GMT -0700)
Calgary Springbank

Weather History for CYBW - January, 2012

Change the Weather History Date:

Friday, January 13, 2012

  Actual Average Record
Temperature  
Mean Temperature 24 °F -  
Max Temperature 34 °F 27 °F 46 °F (2008)
Min Temperature 14 °F 7 °F -38 °F (2005)
Degree Days  
Heating Degree Days 41    
Moisture  
Dew Point 10 °F    
Average Humidity 46    
Maximum Humidity 80    
Minimum Humidity 24    
Precipitation  
Precipitation 0.00 in - - ()
Sea Level Pressure  
Sea Level Pressure 30.06 in    
Wind  
Wind Speed 11 mph ()    
Max Wind Speed 22 mph    
Max Gust Speed 30 mph    
Visibility 15.0 miles    
Events      
Averages and records for this station are not official NWS values.
T = Trace of Precipitation, MM = Missing Value Source: Averaged Metar Reports

Daily Weather History Graph

Daily Weather History Graph

Search for Another Location

Airport or City:

Trip Planner

Search our weather history database for the weather conditions in past years. The results will help you decide how hot, cold, wet, or windy it might be!

Date:

Astronomy

Jan. 13, 2012 Rise Set
Actual Time 8:36 AM MST 4:56 PM MST
Civil Twilight 7:58 AM MST 5:34 PM MST
Nautical Twilight 7:16 AM MST 6:16 PM MST
Astronomical Twilight 6:36 AM MST 6:55 PM MST
Moon 10:56 PM MST (1/13) 10:14 AM MST (1/13)
Length of Visible Light 9h 36m
Length of Day
8h 19m
Waning Gibbous, 78% of the Moon is Illuminated
Jan 13
Waning Gibbous
Jan 16
Last Quarter
Jan 23
New
Jan 30
First Quarter
Feb 7
Full

Hourly Weather History & Observations

Time (MST) Temp. Windchill Dew Point Humidity Pressure Visibility Wind Dir Wind Speed Gust Speed Precip Events Conditions
5:00 AM 28 °F - 16 °F 47% 29.96 in 15 mi WNW 15.0 mph - -   Scattered Clouds
5:00 AM 28.4 °F 16.6 °F 15.8 °F 59% 29.96 in 15.0 mi WNW 16.1 mph - N/A   Partly Cloudy
6:00 AM 30.2 °F 20.8 °F 15.8 °F 55% 29.99 in 15.0 mi NW 11.5 mph 19.6 mph N/A   Partly Cloudy
6:09 AM - - - N/A% - 15.0 mi NNE 10.4 mph 17.3 mph N/A   Partly Cloudy
7:00 AM 23.0 °F 18.4 °F 17.6 °F 80% 30.02 in 15.0 mi North 3.5 mph - N/A   Partly Cloudy
8:00 AM 19.4 °F 14.3 °F 14.0 °F 80% 30.06 in 30.0 mi SW 3.5 mph - N/A   Scattered Clouds
9:00 AM 17.6 °F 10.7 °F 10.4 °F 73% 30.07 in 30.0 mi WSW 4.6 mph - N/A   Scattered Clouds
10:00 AM 28.4 °F 18.0 °F 10.4 °F 47% 30.07 in 30.0 mi West 12.7 mph - N/A   Partly Cloudy
11:00 AM 32 °F - 10 °F 25% 30.05 in 28 mi West 11.5 mph - -   Scattered Clouds
11:00 AM 32.0 °F 21.2 °F 10.4 °F 41% 30.05 in 30.0 mi West 16.1 mph 23.0 mph N/A   Partly Cloudy
12:00 PM 33.8 °F 22.2 °F 8.6 °F 35% 30.06 in 30.0 mi West 20.7 mph - N/A   Partly Cloudy
1:00 PM 33.8 °F 21.9 °F 8.6 °F 35% 30.05 in 30.0 mi West 21.9 mph - N/A   Partly Cloudy
2:00 PM 33.8 °F 22.5 °F 8.6 °F 35% 30.05 in 30.0 mi West 19.6 mph 29.9 mph N/A   Partly Cloudy
3:00 PM 33.8 °F 23.9 °F 8.6 °F 35% 30.06 in 30.0 mi West 15.0 mph 21.9 mph N/A   Partly Cloudy
4:00 PM 32.0 °F 22.1 °F 8.6 °F 38% 30.06 in 30.0 mi West 13.8 mph - N/A   Overcast
5:00 PM 28 °F - 6 °F 24% 30.09 in 28 mi West 15.0 mph - -   Scattered Clouds
5:00 PM 28.4 °F 17.0 °F 6.8 °F 40% 30.09 in 30.0 mi West 15.0 mph - N/A   Mostly Cloudy
6:00 PM 26.6 °F 16.2 °F 5.0 °F 40% 30.10 in 15.0 mi West 11.5 mph - N/A   Mostly Cloudy
7:00 PM 26.6 °F 18.2 °F 6.8 °F 43% 30.09 in 15.0 mi WNW 8.1 mph - N/A   Overcast
8:00 PM 26.6 °F - 6.8 °F 43% 30.12 in 15.0 mi Calm Calm - N/A   Overcast
9:00 PM 23.0 °F 17.0 °F 3.2 °F 43% 30.11 in 15.0 mi NW 4.6 mph - N/A   Overcast
10:00 PM 24.8 °F 17.9 °F 5.0 °F 43% 30.09 in 15.0 mi NW 5.8 mph - N/A   Overcast